Location: Unspecified
(0.0000°N, 0.0000°E)
Time: 07:19:38
(UTC+02:00)

SJ-6B - Visible Passes

Search period start: 19 April 2014 00:00
Search period end: 29 April 2014 00:00
Orbit: 518 x 604 km, 97.8° (Epoch: 17 April)

Date Brightness Start Highest point End Pass type
(mag) Time Alt. Az. Time Alt. Az. Time Alt. Az.
19 Apr 4.7 07:16:41 10° NE 07:20:23 36° ESE 07:24:11 10° SSE visible
20 Apr 4.7 07:15:50 10° NE 07:19:31 35° ESE 07:23:18 10° SSE visible
21 Apr 4.8 07:14:58 10° NE 07:18:38 34° ESE 07:22:24 10° SSE visible
22 Apr 4.9 07:14:05 10° NE 07:17:45 33° ESE 07:21:29 10° SSE visible
23 Apr 4.9 07:13:12 10° NE 07:16:51 32° ESE 07:20:34 10° SSE visible
24 Apr 5.0 07:12:19 10° NE 07:15:56 31° ESE 07:19:38 10° SSE visible
25 Apr 5.0 07:11:25 10° NE 07:15:01 30° ESE 07:18:41 10° SSE visible
26 Apr 5.1 07:10:31 10° NE 07:14:05 29° ESE 07:17:44 10° SSE visible
27 Apr 5.2 07:09:36 10° NE 07:13:09 28° ESE 07:16:46 10° SSE visible
28 Apr 5.2 07:08:41 10° NE 07:12:12 27° ESE 07:15:47 10° SSE visible
